Year,Month,Day,Hour,Minute,Value (Times are PST for temperature in C)
2015,09,27,00,00,7.10
2015,09,27,00,01,7.10
2015,09,27,00,02,7.10
2015,09,27,00,03,7.10
2015,09,27,00,04,7.00
2015,09,27,00,05,7.00
2015,09,27,00,06,7.00
2015,09,27,00,07,7.00
2015,09,27,00,08,7.00
2015,09,27,00,09,7.00
2015,09,27,00,10,7.10
2015,09,27,00,11,7.10
2015,09,27,00,12,7.00
2015,09,27,00,13,7.10
2015,09,27,00,14,7.10
2015,09,27,00,15,7.10
2015,09,27,00,16,7.10
2015,09,27,00,17,7.10
2015,09,27,00,18,7.10
2015,09,27,00,19,7.10
2015,09,27,00,20,7.10
2015,09,27,00,21,7.00
2015,09,27,00,22,7.00
2015,09,27,00,23,7.00
2015,09,27,00,24,7.00
2015,09,27,00,25,7.00
2015,09,27,00,26,7.00
2015,09,27,00,27,7.00
2015,09,27,00,28,6.90
2015,09,27,00,29,6.90
2015,09,27,00,30,6.90
2015,09,27,00,31,6.90
2015,09,27,00,32,6.90
2015,09,27,00,33,6.80
2015,09,27,00,34,6.80
2015,09,27,00,35,6.80
2015,09,27,00,36,6.80
2015,09,27,00,37,6.80
2015,09,27,00,38,6.80
2015,09,27,00,39,6.80
2015,09,27,00,40,6.80
2015,09,27,00,41,6.70
2015,09,27,00,42,6.70
2015,09,27,00,43,6.70
2015,09,27,00,44,6.70
2015,09,27,00,45,6.70
2015,09,27,00,46,6.70
2015,09,27,00,47,6.70
2015,09,27,00,48,6.70
2015,09,27,00,49,6.70
2015,09,27,00,50,6.60
2015,09,27,00,51,6.60
2015,09,27,00,52,6.60
2015,09,27,00,53,6.60
2015,09,27,00,54,6.60
2015,09,27,00,55,6.60
2015,09,27,00,56,6.60
2015,09,27,00,57,6.60
2015,09,27,00,58,6.60
2015,09,27,00,59,6.60
2015,09,27,01,00,6.60
2015,09,27,01,01,6.60
2015,09,27,01,02,6.60
2015,09,27,01,03,6.60
2015,09,27,01,04,6.60
2015,09,27,01,05,6.60
2015,09,27,01,06,6.60
2015,09,27,01,07,6.60
2015,09,27,01,08,6.60
2015,09,27,01,09,6.60
2015,09,27,01,10,6.50
2015,09,27,01,11,6.50
2015,09,27,01,12,6.50
2015,09,27,01,13,6.50
2015,09,27,01,14,6.50
2015,09,27,01,15,6.50
2015,09,27,01,16,6.50
2015,09,27,01,17,6.50
2015,09,27,01,18,6.50
2015,09,27,01,19,6.50
2015,09,27,01,20,6.50
2015,09,27,01,21,6.50
2015,09,27,01,22,6.50
2015,09,27,01,23,6.40
2015,09,27,01,24,6.40
2015,09,27,01,25,6.40
2015,09,27,01,26,6.40
2015,09,27,01,27,6.40
2015,09,27,01,28,6.40
2015,09,27,01,29,6.40
2015,09,27,01,30,6.40
2015,09,27,01,31,6.40
2015,09,27,01,32,6.40
2015,09,27,01,33,6.40
2015,09,27,01,34,6.40
2015,09,27,01,35,6.40
2015,09,27,01,36,6.40
2015,09,27,01,37,6.40
2015,09,27,01,38,6.40
2015,09,27,01,39,6.40
2015,09,27,01,40,6.40
2015,09,27,01,41,6.40
2015,09,27,01,42,6.40
2015,09,27,01,43,6.40
2015,09,27,01,44,6.40
2015,09,27,01,45,6.30
2015,09,27,01,46,6.30
2015,09,27,01,47,6.30
2015,09,27,01,48,6.30
2015,09,27,01,49,6.30
2015,09,27,01,50,6.30
2015,09,27,01,51,6.30
2015,09,27,01,52,6.30
2015,09,27,01,53,6.30
2015,09,27,01,54,6.30
2015,09,27,01,55,6.30
2015,09,27,01,56,6.30
2015,09,27,01,57,6.30
2015,09,27,01,58,6.30
2015,09,27,01,59,6.30
2015,09,27,02,00,6.30
2015,09,27,02,01,6.20
2015,09,27,02,02,6.20
2015,09,27,02,03,6.20
2015,09,27,02,04,6.20
2015,09,27,02,05,6.20
2015,09,27,02,06,6.20
2015,09,27,02,07,6.20
2015,09,27,02,08,6.20
2015,09,27,02,09,6.20
2015,09,27,02,10,6.20
2015,09,27,02,11,6.20
2015,09,27,02,12,6.20
2015,09,27,02,13,6.20
2015,09,27,02,14,6.10
2015,09,27,02,15,6.10
2015,09,27,02,16,6.10
2015,09,27,02,17,6.10
2015,09,27,02,18,6.10
2015,09,27,02,19,6.10
2015,09,27,02,20,6.10
2015,09,27,02,21,6.00
2015,09,27,02,22,6.00
2015,09,27,02,23,6.00
2015,09,27,02,24,6.00
2015,09,27,02,25,5.90
2015,09,27,02,26,5.90
2015,09,27,02,27,5.90
2015,09,27,02,28,5.90
2015,09,27,02,29,5.90
2015,09,27,02,30,5.90
2015,09,27,02,31,5.90
2015,09,27,02,32,5.90
2015,09,27,02,33,5.90
2015,09,27,02,34,5.80
2015,09,27,02,35,5.80
2015,09,27,02,36,5.80
2015,09,27,02,37,5.80
2015,09,27,02,38,5.80
2015,09,27,02,39,5.80
2015,09,27,02,40,5.80
2015,09,27,02,41,5.80
2015,09,27,02,42,5.80
2015,09,27,02,43,5.80
2015,09,27,02,44,5.80
2015,09,27,02,45,5.80
2015,09,27,02,46,5.80
2015,09,27,02,47,5.80
2015,09,27,02,48,5.80
2015,09,27,02,49,5.80
2015,09,27,02,50,5.80
2015,09,27,02,51,5.80
2015,09,27,02,52,5.70
2015,09,27,02,53,5.80
2015,09,27,02,54,5.80
2015,09,27,02,55,5.70
2015,09,27,02,56,5.80
2015,09,27,02,57,5.80
2015,09,27,02,58,5.80
2015,09,27,02,59,5.70
2015,09,27,03,00,5.80
2015,09,27,03,01,5.70
2015,09,27,03,02,5.70
2015,09,27,03,03,5.70
2015,09,27,03,04,5.70
2015,09,27,03,05,5.70
2015,09,27,03,06,5.70
2015,09,27,03,07,5.70
2015,09,27,03,08,5.70
2015,09,27,03,09,5.70
2015,09,27,03,10,5.70
2015,09,27,03,11,5.70
2015,09,27,03,12,5.70
2015,09,27,03,13,5.70
2015,09,27,03,14,5.70
2015,09,27,03,15,5.70
2015,09,27,03,16,5.70
2015,09,27,03,17,5.70
2015,09,27,03,18,5.70
2015,09,27,03,19,5.70
2015,09,27,03,20,5.70
2015,09,27,03,21,5.70
2015,09,27,03,22,5.70
2015,09,27,03,23,5.70
2015,09,27,03,24,5.70
2015,09,27,03,25,5.70
2015,09,27,03,26,5.70
2015,09,27,03,27,5.70
2015,09,27,03,28,5.70
2015,09,27,03,29,5.70
2015,09,27,03,30,5.70
2015,09,27,03,31,5.70
2015,09,27,03,32,5.70
2015,09,27,03,33,5.70
2015,09,27,03,34,5.70
2015,09,27,03,35,5.70
2015,09,27,03,36,5.70
2015,09,27,03,37,5.70
2015,09,27,03,38,5.70
2015,09,27,03,39,5.70
2015,09,27,03,40,5.70
2015,09,27,03,41,5.70
2015,09,27,03,42,5.70
2015,09,27,03,43,5.60
2015,09,27,03,44,5.60
2015,09,27,03,45,5.60
2015,09,27,03,46,5.60
2015,09,27,03,47,5.60
2015,09,27,03,48,5.60
2015,09,27,03,49,5.60
2015,09,27,03,50,5.60
2015,09,27,03,51,5.60
2015,09,27,03,52,5.60
2015,09,27,03,53,5.60
2015,09,27,03,54,5.60
2015,09,27,03,55,5.60
2015,09,27,03,56,5.60
2015,09,27,03,57,5.60
2015,09,27,03,58,5.60
2015,09,27,03,59,5.60
2015,09,27,04,00,5.60
2015,09,27,04,01,5.60
2015,09,27,04,02,5.60
2015,09,27,04,03,5.60
2015,09,27,04,04,5.60
2015,09,27,04,05,5.60
2015,09,27,04,06,5.60
2015,09,27,04,07,5.60
2015,09,27,04,08,5.60
2015,09,27,04,09,5.60
2015,09,27,04,10,5.60
2015,09,27,04,11,5.70
2015,09,27,04,12,5.70
2015,09,27,04,13,5.70
2015,09,27,04,14,5.70
2015,09,27,04,15,5.80
2015,09,27,04,16,5.80
2015,09,27,04,17,5.80
2015,09,27,04,18,5.80
2015,09,27,04,19,5.80
2015,09,27,04,20,5.80
2015,09,27,04,21,5.80
2015,09,27,04,22,5.80
2015,09,27,04,23,5.80
2015,09,27,04,24,5.70
2015,09,27,04,25,5.70
2015,09,27,04,26,5.70
2015,09,27,04,27,5.70
2015,09,27,04,28,5.70
2015,09,27,04,29,5.60
2015,09,27,04,30,5.60
2015,09,27,04,31,5.60
2015,09,27,04,32,5.50
2015,09,27,04,33,5.50
2015,09,27,04,34,5.50
2015,09,27,04,35,5.40
2015,09,27,04,36,5.40
2015,09,27,04,37,5.40
2015,09,27,04,38,5.30
2015,09,27,04,39,5.30
2015,09,27,04,40,5.30
2015,09,27,04,41,5.30
2015,09,27,04,42,5.30
2015,09,27,04,43,5.30
2015,09,27,04,44,5.30
2015,09,27,04,45,5.30
2015,09,27,04,46,5.30
2015,09,27,04,47,5.30
2015,09,27,04,48,5.30
2015,09,27,04,49,5.20
2015,09,27,04,50,5.20
2015,09,27,04,51,5.20
2015,09,27,04,52,5.20
2015,09,27,04,53,5.20
2015,09,27,04,54,5.20
2015,09,27,04,55,5.20
2015,09,27,04,56,5.20
2015,09,27,04,57,5.20
2015,09,27,04,58,5.20
2015,09,27,04,59,5.20
2015,09,27,05,00,5.20
2015,09,27,05,01,5.20
2015,09,27,05,02,5.20
2015,09,27,05,03,5.10
2015,09,27,05,04,5.10
2015,09,27,05,05,5.10
2015,09,27,05,06,5.10
2015,09,27,05,07,5.10
2015,09,27,05,08,5.10
2015,09,27,05,09,5.10
2015,09,27,05,10,5.10
2015,09,27,05,11,5.10
2015,09,27,05,12,5.10
2015,09,27,05,13,5.10
2015,09,27,05,14,5.10
2015,09,27,05,15,5.10
2015,09,27,05,16,5.10
2015,09,27,05,17,5.10
2015,09,27,05,18,5.10
2015,09,27,05,19,5.10
2015,09,27,05,20,5.10
2015,09,27,05,21,5.10
2015,09,27,05,22,5.10
2015,09,27,05,23,5.10
2015,09,27,05,24,5.10
2015,09,27,05,25,5.10
2015,09,27,05,26,5.10
2015,09,27,05,27,5.10
2015,09,27,05,28,5.10
2015,09,27,05,29,5.10
2015,09,27,05,30,5.10
2015,09,27,05,31,5.10
2015,09,27,05,32,5.10
2015,09,27,05,33,5.10
2015,09,27,05,34,5.00
2015,09,27,05,35,5.00
2015,09,27,05,36,5.00
2015,09,27,05,37,5.00
2015,09,27,05,38,5.00
2015,09,27,05,39,4.90
2015,09,27,05,40,4.90
2015,09,27,05,41,4.90
2015,09,27,05,42,4.90
2015,09,27,05,43,4.90
2015,09,27,05,44,4.90
2015,09,27,05,45,4.90
2015,09,27,05,46,4.90
2015,09,27,05,47,4.90
2015,09,27,05,48,4.90
2015,09,27,05,49,4.90
2015,09,27,05,50,4.90
2015,09,27,05,51,4.90
2015,09,27,05,52,4.90
2015,09,27,05,53,4.90
2015,09,27,05,54,4.80
2015,09,27,05,55,4.80
2015,09,27,05,56,4.80
2015,09,27,05,57,4.80
2015,09,27,05,58,4.80
2015,09,27,05,59,4.80
2015,09,27,06,00,4.80
2015,09,27,06,01,4.80
2015,09,27,06,02,4.80
2015,09,27,06,03,4.80
2015,09,27,06,04,4.80
2015,09,27,06,05,4.80
2015,09,27,06,06,4.80
2015,09,27,06,07,4.80
2015,09,27,06,08,4.80
2015,09,27,06,09,4.80
2015,09,27,06,10,4.80
2015,09,27,06,11,4.80
2015,09,27,06,12,4.90
2015,09,27,06,13,4.90
2015,09,27,06,14,4.90
2015,09,27,06,15,4.90
2015,09,27,06,16,4.90
2015,09,27,06,17,4.90
2015,09,27,06,18,4.90
2015,09,27,06,19,4.90
2015,09,27,06,20,4.90
2015,09,27,06,21,4.90
2015,09,27,06,22,4.90
2015,09,27,06,23,4.90
2015,09,27,06,24,4.80
2015,09,27,06,25,4.80
2015,09,27,06,26,4.80
2015,09,27,06,27,4.80
2015,09,27,06,28,4.80
2015,09,27,06,29,4.80
2015,09,27,06,30,4.80
2015,09,27,06,31,4.80
2015,09,27,06,32,4.80
2015,09,27,06,33,4.70
2015,09,27,06,34,4.70
2015,09,27,06,35,4.70
2015,09,27,06,36,4.70
2015,09,27,06,37,4.70
2015,09,27,06,38,4.70
2015,09,27,06,39,4.70
2015,09,27,06,40,4.70
2015,09,27,06,41,4.70
2015,09,27,06,42,4.70
2015,09,27,06,43,4.70
2015,09,27,06,44,4.70
2015,09,27,06,45,4.70
2015,09,27,06,46,4.70
2015,09,27,06,47,4.60
2015,09,27,06,48,4.60
2015,09,27,06,49,4.60
2015,09,27,06,50,4.60
2015,09,27,06,51,4.60
2015,09,27,06,52,4.60
2015,09,27,06,53,4.60
2015,09,27,06,54,4.60
2015,09,27,06,55,4.50
2015,09,27,06,56,4.50
2015,09,27,06,57,4.50
2015,09,27,06,58,4.50
2015,09,27,06,59,4.50
2015,09,27,07,00,4.50
2015,09,27,07,01,4.50
2015,09,27,07,02,4.50
2015,09,27,07,03,4.50
2015,09,27,07,04,4.50
2015,09,27,07,05,4.50
2015,09,27,07,06,4.50
2015,09,27,07,07,4.50
2015,09,27,07,08,4.50
2015,09,27,07,09,4.50
2015,09,27,07,10,4.50
2015,09,27,07,11,4.50
2015,09,27,07,12,4.50
2015,09,27,07,13,4.50
2015,09,27,07,14,4.50
2015,09,27,07,15,4.50
2015,09,27,07,16,4.50
2015,09,27,07,17,4.60
2015,09,27,07,18,4.60
2015,09,27,07,19,4.60
2015,09,27,07,20,4.60
2015,09,27,07,21,4.60
2015,09,27,07,22,4.50
2015,09,27,07,23,4.50
2015,09,27,07,24,4.50
2015,09,27,07,25,4.50
2015,09,27,07,26,4.50
2015,09,27,07,27,4.50
2015,09,27,07,28,4.50
2015,09,27,07,29,4.40
2015,09,27,07,30,4.40
2015,09,27,07,31,4.40
2015,09,27,07,32,4.40
2015,09,27,07,33,4.40
2015,09,27,07,34,4.40
2015,09,27,07,35,4.40
2015,09,27,07,36,4.40
2015,09,27,07,37,4.40
2015,09,27,07,38,4.40
2015,09,27,07,39,4.40
2015,09,27,07,40,4.40
2015,09,27,07,41,4.40
2015,09,27,07,42,4.40
2015,09,27,07,43,4.40
2015,09,27,07,44,4.40
2015,09,27,07,45,4.40
2015,09,27,07,46,4.40
2015,09,27,07,47,4.40
2015,09,27,07,48,4.40
2015,09,27,07,49,4.40
2015,09,27,07,50,4.40
2015,09,27,07,51,4.50
2015,09,27,07,52,4.40
2015,09,27,07,53,4.50
2015,09,27,07,54,4.50
2015,09,27,07,55,4.50
2015,09,27,07,56,4.50
2015,09,27,07,57,4.50
2015,09,27,07,58,4.50
2015,09,27,07,59,4.50
2015,09,27,08,00,4.50
2015,09,27,08,01,4.50
2015,09,27,08,02,4.50
2015,09,27,08,03,4.50
2015,09,27,08,04,4.50
2015,09,27,08,05,4.50
2015,09,27,08,06,4.50
2015,09,27,08,07,4.50
2015,09,27,08,08,4.50
2015,09,27,08,09,4.50
2015,09,27,08,10,4.50
2015,09,27,08,11,4.60
2015,09,27,08,12,4.60
2015,09,27,08,13,4.60
2015,09,27,08,14,4.60
2015,09,27,08,15,4.60
2015,09,27,08,16,4.60
2015,09,27,08,17,4.60
2015,09,27,08,18,4.60
2015,09,27,08,19,4.60
2015,09,27,08,20,4.60
2015,09,27,08,21,4.60
2015,09,27,08,22,4.60
2015,09,27,08,23,4.60
2015,09,27,08,24,4.60
2015,09,27,08,25,4.60
2015,09,27,08,26,4.60
2015,09,27,08,27,4.60
2015,09,27,08,28,4.60
2015,09,27,08,29,4.60
2015,09,27,08,30,4.60
2015,09,27,08,31,4.60
2015,09,27,08,32,4.70
2015,09,27,08,33,4.70
2015,09,27,08,34,4.70
2015,09,27,08,35,4.70
2015,09,27,08,36,4.70
2015,09,27,08,37,4.70
2015,09,27,08,38,4.70
2015,09,27,08,39,4.70
2015,09,27,08,40,4.70
2015,09,27,08,41,4.70
2015,09,27,08,42,4.70
2015,09,27,08,43,4.80
2015,09,27,08,44,4.80
2015,09,27,08,45,4.80
2015,09,27,08,46,4.80
2015,09,27,08,47,4.80
2015,09,27,08,48,4.80
2015,09,27,08,49,4.80
2015,09,27,08,50,4.80
2015,09,27,08,51,4.80
2015,09,27,08,52,4.90
2015,09,27,08,53,4.90
2015,09,27,08,54,4.90
2015,09,27,08,55,4.90
2015,09,27,08,56,4.90
2015,09,27,08,57,4.90
2015,09,27,08,58,4.90
2015,09,27,08,59,5.00
2015,09,27,09,00,5.00
2015,09,27,09,01,5.00
2015,09,27,09,02,5.00
2015,09,27,09,03,5.00
2015,09,27,09,04,5.10
2015,09,27,09,05,5.10
2015,09,27,09,06,5.10
2015,09,27,09,07,5.10
2015,09,27,09,08,5.10
2015,09,27,09,09,5.10
2015,09,27,09,10,5.20
2015,09,27,09,11,5.20
2015,09,27,09,12,5.20
2015,09,27,09,13,5.20
2015,09,27,09,14,5.20
2015,09,27,09,15,5.20
2015,09,27,09,16,5.30
2015,09,27,09,17,5.30
2015,09,27,09,18,5.30
2015,09,27,09,19,5.30
2015,09,27,09,20,5.40
2015,09,27,09,21,5.40
2015,09,27,09,22,5.40
2015,09,27,09,23,5.40
2015,09,27,09,24,5.50
2015,09,27,09,25,5.50
2015,09,27,09,26,5.60
2015,09,27,09,27,5.60
2015,09,27,09,28,5.60
2015,09,27,09,29,5.60
2015,09,27,09,30,5.70
2015,09,27,09,31,5.70
2015,09,27,09,32,5.70
2015,09,27,09,33,5.80
2015,09,27,09,34,5.80
2015,09,27,09,35,5.80
2015,09,27,09,36,5.90
2015,09,27,09,37,5.90
2015,09,27,09,38,5.90
2015,09,27,09,39,5.90
2015,09,27,09,40,6.00
2015,09,27,09,41,6.00
2015,09,27,09,42,6.10
2015,09,27,09,43,6.10
2015,09,27,09,44,6.10
2015,09,27,09,45,6.20
2015,09,27,09,46,6.20
2015,09,27,09,47,6.30
2015,09,27,09,48,6.30
2015,09,27,09,49,6.30
2015,09,27,09,50,6.40
2015,09,27,09,51,6.40
2015,09,27,09,52,6.40
2015,09,27,09,53,6.50
2015,09,27,09,54,6.60
2015,09,27,09,55,6.60
2015,09,27,09,56,6.70
2015,09,27,09,57,6.70
2015,09,27,09,58,6.80
2015,09,27,09,59,6.80
2015,09,27,10,00,6.80
2015,09,27,10,01,6.90
2015,09,27,10,02,6.90
2015,09,27,10,03,7.00
2015,09,27,10,04,7.00
2015,09,27,10,05,7.10
2015,09,27,10,06,7.20
2015,09,27,10,07,7.20
2015,09,27,10,08,7.20
2015,09,27,10,09,7.20
2015,09,27,10,10,7.20
2015,09,27,10,11,7.30
2015,09,27,10,12,7.30
2015,09,27,10,13,7.40
2015,09,27,10,14,7.40
2015,09,27,10,15,7.40
2015,09,27,10,16,7.50
2015,09,27,10,17,7.60
2015,09,27,10,18,7.60
2015,09,27,10,19,7.60
2015,09,27,10,20,7.70
2015,09,27,10,21,7.70
2015,09,27,10,22,7.80
2015,09,27,10,23,7.80
2015,09,27,10,24,7.80
2015,09,27,10,25,7.90
2015,09,27,10,26,7.90
2015,09,27,10,27,7.90
2015,09,27,10,28,8.00
2015,09,27,10,29,8.10
2015,09,27,10,30,8.10
2015,09,27,10,31,8.20
2015,09,27,10,32,8.30
2015,09,27,10,33,8.30
2015,09,27,10,34,8.40
2015,09,27,10,35,8.50
2015,09,27,10,36,8.50
2015,09,27,10,37,8.60
2015,09,27,10,38,8.70
2015,09,27,10,39,8.70
2015,09,27,10,40,8.80
2015,09,27,10,41,8.90
2015,09,27,10,42,8.90
2015,09,27,10,43,9.00
2015,09,27,10,44,9.10
2015,09,27,10,45,9.10
2015,09,27,10,46,9.20
2015,09,27,10,47,9.30
2015,09,27,10,48,9.40
2015,09,27,10,49,9.50
2015,09,27,10,50,9.50
2015,09,27,10,51,9.60
2015,09,27,10,52,9.60
2015,09,27,10,53,9.70
2015,09,27,10,54,9.70
2015,09,27,10,55,9.80
2015,09,27,10,56,9.80
2015,09,27,10,57,9.90
2015,09,27,10,58,9.90
2015,09,27,10,59,9.90
2015,09,27,11,00,10.00
2015,09,27,11,01,10.00
2015,09,27,11,02,10.10
2015,09,27,11,03,10.10
2015,09,27,11,04,10.20
2015,09,27,11,05,10.20
2015,09,27,11,06,10.30
2015,09,27,11,07,10.30
2015,09,27,11,08,10.40
2015,09,27,11,09,10.40
2015,09,27,11,10,10.50
2015,09,27,11,11,10.50
2015,09,27,11,12,10.60
2015,09,27,11,13,10.60
2015,09,27,11,14,10.70
2015,09,27,11,15,10.70
2015,09,27,11,16,10.70
2015,09,27,11,17,10.80
2015,09,27,11,18,10.80
2015,09,27,11,19,10.80
2015,09,27,11,20,10.80
2015,09,27,11,21,10.80
2015,09,27,11,22,10.90
2015,09,27,11,23,10.90
2015,09,27,11,24,10.90
2015,09,27,11,25,10.90
2015,09,27,11,26,10.90
2015,09,27,11,27,11.00
2015,09,27,11,28,11.00
2015,09,27,11,29,11.00
2015,09,27,11,30,11.10
2015,09,27,11,31,11.10
2015,09,27,11,32,11.10
2015,09,27,11,33,11.10
2015,09,27,11,34,11.20
2015,09,27,11,35,11.20
2015,09,27,11,36,11.20
2015,09,27,11,37,11.30
2015,09,27,11,38,11.30
2015,09,27,11,39,11.30
2015,09,27,11,40,11.40
2015,09,27,11,41,11.40
2015,09,27,11,42,11.40
2015,09,27,11,43,11.50
2015,09,27,11,44,11.50
2015,09,27,11,45,11.60
2015,09,27,11,46,11.60
2015,09,27,11,47,11.60
2015,09,27,11,48,11.60
2015,09,27,11,49,11.70
2015,09,27,11,50,11.70
2015,09,27,11,51,11.70
2015,09,27,11,52,11.70
2015,09,27,11,53,11.80
2015,09,27,11,54,11.80
2015,09,27,11,55,11.80
2015,09,27,11,56,11.80
2015,09,27,11,57,11.90
2015,09,27,11,58,11.90
2015,09,27,11,59,12.00
2015,09,27,12,00,12.00
2015,09,27,12,01,12.10
2015,09,27,12,02,12.10
2015,09,27,12,03,12.10
2015,09,27,12,04,12.20
2015,09,27,12,05,12.20
2015,09,27,12,06,12.20
2015,09,27,12,07,12.30
2015,09,27,12,08,12.30
2015,09,27,12,09,12.30
2015,09,27,12,10,12.30
2015,09,27,12,11,12.40
2015,09,27,12,12,12.40
2015,09,27,12,13,12.40
2015,09,27,12,14,12.40
2015,09,27,12,15,12.50
2015,09,27,12,16,12.50
2015,09,27,12,17,12.60
2015,09,27,12,18,12.60
2015,09,27,12,19,12.60
2015,09,27,12,20,12.60
2015,09,27,12,21,12.70
2015,09,27,12,22,12.70
2015,09,27,12,23,12.80
2015,09,27,12,24,12.80
2015,09,27,12,25,12.80
2015,09,27,12,26,12.80
2015,09,27,12,27,12.90
2015,09,27,12,28,12.90
2015,09,27,12,29,12.90
2015,09,27,12,30,12.90
2015,09,27,12,31,12.90
2015,09,27,12,32,13.00
2015,09,27,12,33,13.00
2015,09,27,12,34,13.00
2015,09,27,12,35,13.00
2015,09,27,12,36,13.10
2015,09,27,12,37,13.10
2015,09,27,12,38,13.10
2015,09,27,12,39,13.10
2015,09,27,12,40,13.20
2015,09,27,12,41,13.20
2015,09,27,12,42,13.20
2015,09,27,12,43,13.20
2015,09,27,12,44,13.20
2015,09,27,12,45,13.20
2015,09,27,12,46,13.20
2015,09,27,12,47,13.20
2015,09,27,12,48,13.20
2015,09,27,12,49,13.20
2015,09,27,12,50,13.30
2015,09,27,12,51,13.30
2015,09,27,12,52,13.30
2015,09,27,12,53,13.30
2015,09,27,12,54,13.30
2015,09,27,12,55,13.30
2015,09,27,12,56,13.40
2015,09,27,12,57,13.40
2015,09,27,12,58,13.40
2015,09,27,12,59,13.50
2015,09,27,13,00,13.50
2015,09,27,13,01,13.50
2015,09,27,13,02,13.50
2015,09,27,13,03,13.60
2015,09,27,13,04,13.60
2015,09,27,13,05,13.60
2015,09,27,13,06,13.60
2015,09,27,13,07,13.70
2015,09,27,13,08,13.70
2015,09,27,13,09,13.70
2015,09,27,13,10,13.80
2015,09,27,13,11,13.80
2015,09,27,13,12,13.80
2015,09,27,13,13,13.80
2015,09,27,13,14,13.90
2015,09,27,13,15,13.90
2015,09,27,13,16,13.90
2015,09,27,13,17,13.90
2015,09,27,13,18,14.00
2015,09,27,13,19,14.00
2015,09,27,13,20,14.00
2015,09,27,13,21,14.10
2015,09,27,13,22,14.10
2015,09,27,13,23,14.10
2015,09,27,13,24,14.10
2015,09,27,13,25,14.10
2015,09,27,13,26,14.10
2015,09,27,13,27,14.10
2015,09,27,13,28,14.10
2015,09,27,13,29,14.20
2015,09,27,13,30,14.20
2015,09,27,13,31,14.20
2015,09,27,13,32,14.20
2015,09,27,13,33,14.20
2015,09,27,13,34,14.20
2015,09,27,13,35,14.20
2015,09,27,13,36,14.20
2015,09,27,13,37,14.30
2015,09,27,13,38,14.30
2015,09,27,13,39,14.30
2015,09,27,13,40,14.40
2015,09,27,13,41,14.40
2015,09,27,13,42,14.40
2015,09,27,13,43,14.40
2015,09,27,13,44,14.50
2015,09,27,13,45,14.50
2015,09,27,13,46,14.50
2015,09,27,13,47,14.60
2015,09,27,13,48,14.60
2015,09,27,13,49,14.70
2015,09,27,13,50,14.70
2015,09,27,13,51,14.80
2015,09,27,13,52,14.80
2015,09,27,13,53,14.90
2015,09,27,13,54,15.00
2015,09,27,13,55,15.00
2015,09,27,13,56,15.00
2015,09,27,13,57,15.00
2015,09,27,13,58,15.00
2015,09,27,13,59,15.00
2015,09,27,14,00,15.00
2015,09,27,14,01,15.00
2015,09,27,14,02,15.00
2015,09,27,14,03,15.00
2015,09,27,14,04,15.10
2015,09,27,14,05,15.20
2015,09,27,14,06,15.20
2015,09,27,14,07,15.20
2015,09,27,14,08,15.20
2015,09,27,14,09,15.30
2015,09,27,14,10,15.30
2015,09,27,14,11,15.30
2015,09,27,14,12,15.30
2015,09,27,14,13,15.30
2015,09,27,14,14,15.30
2015,09,27,14,15,15.40
2015,09,27,14,16,15.40
2015,09,27,14,17,15.40
2015,09,27,14,18,15.50
2015,09,27,14,19,15.50
2015,09,27,14,20,15.50
2015,09,27,14,21,15.50
2015,09,27,14,22,15.60
2015,09,27,14,23,15.60
2015,09,27,14,24,15.60
2015,09,27,14,25,15.70
2015,09,27,14,26,15.70
2015,09,27,14,27,15.70
2015,09,27,14,28,15.70
2015,09,27,14,29,15.80
2015,09,27,14,30,15.80
2015,09,27,14,31,15.80
2015,09,27,14,32,15.80
2015,09,27,14,33,15.80
2015,09,27,14,34,15.90
2015,09,27,14,35,15.80
2015,09,27,14,36,15.90
2015,09,27,14,37,15.90
2015,09,27,14,38,15.90
2015,09,27,14,39,16.00
2015,09,27,14,40,16.00
2015,09,27,14,41,16.00
2015,09,27,14,42,16.10
2015,09,27,14,43,16.10
2015,09,27,14,44,16.10
2015,09,27,14,45,16.10
2015,09,27,14,46,16.20
2015,09,27,14,47,16.20
2015,09,27,14,48,16.20
2015,09,27,14,49,16.20
2015,09,27,14,50,16.20
2015,09,27,14,51,16.20
2015,09,27,14,52,16.20
2015,09,27,14,53,16.20
2015,09,27,14,54,16.20
2015,09,27,14,55,16.20
2015,09,27,14,56,16.20
2015,09,27,14,57,16.30
2015,09,27,14,58,16.30
2015,09,27,14,59,16.30
2015,09,27,15,00,16.40
2015,09,27,15,01,16.40
2015,09,27,15,02,16.40
2015,09,27,15,03,16.50
2015,09,27,15,04,16.50
2015,09,27,15,05,16.50
2015,09,27,15,06,16.60
2015,09,27,15,07,16.60
2015,09,27,15,08,16.60
2015,09,27,15,09,16.60
2015,09,27,15,10,16.60
2015,09,27,15,11,16.70
2015,09,27,15,12,16.70
2015,09,27,15,13,16.60
2015,09,27,15,14,16.60
2015,09,27,15,15,16.60
2015,09,27,15,16,16.60
2015,09,27,15,17,16.60
2015,09,27,15,18,16.60
2015,09,27,15,19,16.60
2015,09,27,15,20,16.60
2015,09,27,15,21,16.60
2015,09,27,15,22,16.60
2015,09,27,15,23,16.60
2015,09,27,15,24,16.70
2015,09,27,15,25,16.70
2015,09,27,15,26,16.80
2015,09,27,15,27,16.80
2015,09,27,15,28,16.90
2015,09,27,15,29,16.90
2015,09,27,15,30,16.90
2015,09,27,15,31,17.00
2015,09,27,15,32,17.10
2015,09,27,15,33,17.10
2015,09,27,15,34,17.10
2015,09,27,15,35,17.20
2015,09,27,15,36,17.30
2015,09,27,15,37,17.30
2015,09,27,15,38,17.40
2015,09,27,15,39,17.40
2015,09,27,15,40,17.50
2015,09,27,15,41,17.50
2015,09,27,15,42,17.50
2015,09,27,15,43,17.40
2015,09,27,15,44,17.30
2015,09,27,15,45,17.30
2015,09,27,15,46,17.30
2015,09,27,15,47,17.30
2015,09,27,15,48,17.40
2015,09,27,15,49,17.40
2015,09,27,15,50,17.40
2015,09,27,15,51,17.40
2015,09,27,15,52,17.40
2015,09,27,15,53,17.40
2015,09,27,15,54,17.40
2015,09,27,15,55,17.50
2015,09,27,15,56,17.60
2015,09,27,15,57,17.60
2015,09,27,15,58,17.70
2015,09,27,15,59,17.80
2015,09,27,16,00,17.70
2015,09,27,16,01,17.50
2015,09,27,16,02,17.40
2015,09,27,16,03,17.40
2015,09,27,16,04,17.40
2015,09,27,16,05,17.40
2015,09,27,16,06,17.40
2015,09,27,16,07,17.50
2015,09,27,16,08,17.60
2015,09,27,16,09,17.60
2015,09,27,16,10,17.70
2015,09,27,16,11,17.70
2015,09,27,16,12,17.70
2015,09,27,16,13,17.70
2015,09,27,16,14,17.70
2015,09,27,16,15,17.80
2015,09,27,16,16,17.80
2015,09,27,16,17,17.80
2015,09,27,16,18,17.80
2015,09,27,16,19,17.80
2015,09,27,16,20,17.80
2015,09,27,16,21,17.90
2015,09,27,16,22,17.90
2015,09,27,16,23,17.90
2015,09,27,16,24,17.90
2015,09,27,16,25,17.90
2015,09,27,16,26,17.80
2015,09,27,16,27,17.60
2015,09,27,16,28,17.60
2015,09,27,16,29,17.50
2015,09,27,16,30,17.50
2015,09,27,16,31,17.60
2015,09,27,16,32,17.60
2015,09,27,16,33,17.60
2015,09,27,16,34,17.60
2015,09,27,16,35,17.60
2015,09,27,16,36,17.60
2015,09,27,16,37,17.60
2015,09,27,16,38,17.60
2015,09,27,16,39,17.50
2015,09,27,16,40,17.40
2015,09,27,16,41,17.40
2015,09,27,16,42,17.30
2015,09,27,16,43,17.20
2015,09,27,16,44,17.20
2015,09,27,16,45,17.20
2015,09,27,16,46,17.10
2015,09,27,16,47,17.00
2015,09,27,16,48,16.90
2015,09,27,16,49,16.90
2015,09,27,16,50,16.80
2015,09,27,16,51,16.70
2015,09,27,16,52,16.70
2015,09,27,16,53,16.50
2015,09,27,16,54,16.40
2015,09,27,16,55,16.30
2015,09,27,16,56,16.30
2015,09,27,16,57,16.20
2015,09,27,16,58,16.20
2015,09,27,16,59,16.10
2015,09,27,17,00,16.10
2015,09,27,17,01,16.10
2015,09,27,17,02,16.10
2015,09,27,17,03,16.10
2015,09,27,17,04,16.00
2015,09,27,17,05,16.00
2015,09,27,17,06,15.90
2015,09,27,17,07,15.90
2015,09,27,17,08,15.90
2015,09,27,17,09,15.90
2015,09,27,17,10,16.00
2015,09,27,17,11,16.00
2015,09,27,17,12,15.90
2015,09,27,17,13,15.90
2015,09,27,17,14,15.90
2015,09,27,17,15,15.80
2015,09,27,17,16,15.80
2015,09,27,17,17,15.80
2015,09,27,17,18,15.80
2015,09,27,17,19,15.80
2015,09,27,17,20,15.80
2015,09,27,17,21,15.80
2015,09,27,17,22,15.80
2015,09,27,17,23,15.80
2015,09,27,17,24,15.80
2015,09,27,17,25,15.80
2015,09,27,17,26,15.80
2015,09,27,17,27,15.90
2015,09,27,17,28,15.90
2015,09,27,17,29,15.90
2015,09,27,17,30,15.90
2015,09,27,17,31,15.90
2015,09,27,17,32,15.90
2015,09,27,17,33,15.80
2015,09,27,17,34,15.80
2015,09,27,17,35,15.80
2015,09,27,17,36,15.80
2015,09,27,17,37,15.80
2015,09,27,17,38,15.80
2015,09,27,17,39,15.80
2015,09,27,17,40,15.80
2015,09,27,17,41,15.80
2015,09,27,17,42,15.80
2015,09,27,17,43,15.80
2015,09,27,17,44,15.80
2015,09,27,17,45,15.70
2015,09,27,17,46,15.70
2015,09,27,17,47,15.70
2015,09,27,17,48,15.70